Hourly Data Report for February 22, 2004

SHERBROOKE A
QUEBEC

45°26'00.000" N
71°41'00.000" W
241.40 m
7028124
71610
YSC

Download Data

Hourly Data (February 2004)
Hourly Data Report for February 22, 2004
TIME
LST
Temp Definition
°C
Dew Point Definition
°C
Rel Hum Definition
%
Precip. Amount Definition
mm

Wind Dir Definition
10's deg

Wind Spd Definition
km/h
Visibility Definition
km
Stn Press Definition
kPa
Hmdx Definition


Wind Chill Definition


Weather Definition


00:00 -2.2 -6.3 73   5 7 15.0 97.45   -5 Snow
01:00 -2.6 -6.7 73   4 7 15.0 97.51   -5 Snow
02:00 -2.8 -7.0 73   3 7 15.0 97.55   -6 Snow
03:00 -3.7 -7.8 73   4 15 2.9 97.60   -9 Snow
04:00 -4.3 -8.5 72   3 11 11.3 97.70   -9 Snow
05:00 -4.3 -8.7 71   2 7 11.3 97.80   -7 Snow
06:00 -4.4 -9.0 70   4 6 12.9 97.89   -7 Snow
07:00 -4.8 -9.5 70   4 7 12.9 97.99   -8 Snow
08:00 -5.1 -9.8 70   4 9 9.7 98.07   -9 Snow
09:00 -4.8 -9.8 68   4 7 12.9 98.12   -8 Snow
10:00 -4.3 -9.3 68   1 7 1.6 98.18   -7 Snow
11:00 -3.7 -8.1 71   27 4 1.2 98.24   -5 Snow
12:00 -3.6 -7.9 72   31 4 2.4 98.27   -5 Snow
13:00 -3.1 -7.2 73   30 7 2.4 98.31   -6 Snow
14:00 -2.4 -6.6 73   29 9 2.4 98.35   -6 Snow
15:00 -2.4 -6.5 73   30 11 2.4 98.43   -6 Snow
16:00 -2.8 -7.0 73   32 9 2.4 98.51   -6 Snow
17:00 -3.4 -7.6 73   32 6 4.0 98.60   -6 Snow
18:00 -3.9 -7.9 74   29 7 2.7 98.67   -7 Snow
19:00 -3.9 -7.5 76   27 7 2.3 98.73   -7 Snow
20:00 -3.7 -7.4 75   26 13 2.4 98.76   -9 Snow
21:00 -3.9 -7.7 75   26 9 2.4 98.78   -8 Snow
22:00 -3.7 -7.3 76   27 13 1.6 98.79   -9 Snow
23:00 -3.8 -7.5 75   28 22 3.1 98.81   -10 Snow

Notes on Data Quality.

Legend

  • E = Estimated
  • M = Missing
  • NA = Not Available*
  • [empty] = Indicates an unobserved value
Date modified: